1281052826092,0.592882
1281052886092,0.592396
1281052946092,0.595208
1281053006092,0.595483
1281053066092,0.597055
1281053126092,0.597598
1281053186092,0.586152
1281053246092,0.598366
1281053306092,0.592018
1281053366092,0.598902
1281053426092,0.593778
1281053486092,0.590329
1281053546092,0.593066
1281053606092,0.588717
1281053666092,0.592195
1281053726092,0.591884
1281053786092,0.595248
1281053846092,0.595282
1281053906092,0.583248
1281053966092,0.588946
1281054026092,0.590199
1281054086092,0.600741
1281054146092,0.592758
1281054206092,0.597314
1281054266092,0.599103
1281054326092,0.593283
1281054386092,0.591690
1281054446092,0.594272
1281054506092,0.588918
1281054566092,0.593662
1281054626092,0.592871
1281054686092,0.593889
1281054746092,0.590730
1281054806092,0.593913
1281054866092,0.587599
1281054926092,0.593364
1281054986092,0.591838
1281055046092,0.588256
1281055106092,0.597552
1281055166092,0.585046
1281055226092,0.588620
1281055286092,0.594031
1281055346092,0.592354
1281055406092,0.586618
1281055466092,0.587868
1281055526092,0.590606
1281055586092,0.586953
1281055646092,0.597893
1281055706092,0.585161
1281055766092,0.595031
1281055826092,0.592394
1281055886092,0.587006
1281055946092,0.587063
1281056006092,0.588233
1281056066092,0.589231
1281056126092,0.589864
1281056186092,0.588491
1281056246092,0.591062
1281056306092,0.591980
1281056366092,0.589444
1281056426101,0.586972
1281056486101,0.588863
1281056546101,0.586315
1281056606101,0.591827
1281056666101,0.592593
1281056726101,0.593057
1281056786101,0.588430
1281056846101,0.590593
1281056906101,0.589316
1281056966101,0.594950
1281057026101,0.590358
1281057086101,0.588043
1281057146101,0.584276
1281057206101,0.586530
1281057266101,0.587342
1281057326101,0.588071
1281057386101,0.586796
1281057446101,0.591140
1281057506101,0.589954
1281057566101,0.598052
1281057626101,0.593036
1281057686101,0.591757
1281057746101,0.596223
1281057806101,0.600709
1281057866101,0.600043
1281057926101,0.606221
1281057986101,0.606014
1281058046101,0.604418
1281058106101,0.610619
1281058166101,0.606574
1281058226101,0.610856
1281058286101,0.617901
1281058346101,0.619828
1281058406101,0.618414
1281058466101,0.618332
1281058526101,0.625218
1281058586101,0.621931
1281058646101,0.628066
1281058706101,0.620538
1281058766101,0.630904
1281058826101,0.624543
1281058886101,0.628165
1281058946101,0.624956
1281059006101,0.627387
1281059066101,0.625304
1281059126101,0.622438
1281059186101,0.623061
1281059246101,0.619863
1281059306101,0.619749
1281059366101,0.619648
1281059426101,0.620032
1281059486101,0.616319
1281059546101,0.613154
1281059606101,0.619329
1281059666101,0.619386
1281059726101,0.617056
1281059786101,0.613691
1281059846101,0.609272
1281059906101,0.613192
1281059966101,0.613815
1281060026109,0.611415
1281060086109,0.608651
1281060146109,0.617322
1281060206109,0.612690
1281060266109,0.606705
1281060326109,0.617028
1281060386109,0.613624
1281060446109,0.613122
1281060506109,0.611224
1281060566109,0.612681
1281060626109,0.617003
1281060686109,0.610223
1281060746109,0.617256
1281060806109,0.613336
1281060866109,0.614651
1281060926109,0.604892
1281060986109,0.608507
1281061046109,0.608762
1281061106109,0.604007
1281061166109,0.602914
1281061226109,0.597306
1281061286109,0.600078
1281061346109,0.604707
1281061406109,0.599816
1281061466109,0.600470
1281061526109,0.605874
1281061586109,0.596069
1281061646109,0.605735
1281061706109,0.601374
1281061766109,0.601554
1281061826109,0.602228
1281061886109,0.600495
1281061946109,0.601299
1281062006109,0.598965
1281062066109,0.599646
1281062126109,0.599819
1281062186109,0.597732
1281062246109,0.593620
1281062306109,0.596061
1281062366109,0.593837
1281062426109,0.604445
1281062486109,0.591286
1281062546109,0.598931
1281062606109,0.592031
1281062666109,0.593503
1281062726109,0.596766
1281062786109,0.591646
1281062846109,0.587836
1281062906109,0.599166
1281062966109,0.590868
1281063026109,0.595971
1281063086109,0.589875
1281063146109,0.595837
1281063206109,0.593214
1281063266109,0.596637
1281063326109,0.587827
1281063386109,0.589375
1281063446109,0.601336
1281063506109,0.585130
1281063566109,0.591954
1281063626118,0.600848
1281063686118,0.584143
1281063746118,0.593968
1281063806118,0.591961
1281063866118,0.591866
1281063926118,0.595698
1281063986118,0.590368
1281064046118,0.593953
1281064106118,0.595960
1281064166118,0.595011
1281064226118,0.590101
1281064286118,0.599180
1281064346118,0.598002
1281064406118,0.595613
1281064466118,0.594048
1281064526118,0.589242
1281064586118,0.592263
1281064646118,0.592470
1281064706118,0.592311
1281064766118,0.590280
1281064826118,0.597133
1281064886118,0.594848
1281064946118,0.587486
1281065006118,0.596553
1281065066118,0.592715
1281065126118,0.590802
1281065186118,0.591843
1281065246118,0.585418
1281065306118,0.583293
1281065366118,0.586044
1281065426118,0.589503
1281065486118,0.584440
1281065546118,0.586830
1281065606118,0.585520
1281065666118,0.582275
1281065726118,0.585391
1281065786118,0.581660
1281065846118,0.588212
1281065906118,0.585687
1281065966118,0.584811
1281066026118,0.581648
1281066086118,0.589644
1281066146118,0.580594
1281066206118,0.582831
1281066266118,0.589480
1281066326118,0.588511
1281066386118,0.588395
1281066446118,0.592685
1281066506118,0.587360
1281066566118,0.581729
1281066626118,0.583330
1281066686118,0.585109
1281066746118,0.580967
1281066806118,0.585937
1281066866118,0.581040
1281066926118,0.586589
1281066986118,0.588291
1281067046118,0.585818
1281067106118,0.588247
1281067166118,0.579816
1281067226126,0.586821
1281067286126,0.577810
1281067346126,0.581355
1281067406126,0.587374
1281067466126,0.584358
1281067526126,0.580595
1281067586126,0.581243
1281067646126,0.584311
1281067706126,0.581389
1281067766126,0.585200
1281067826126,0.584389
1281067886126,0.591162
1281067946126,0.582100
1281068006126,0.580642
1281068066126,0.580093
1281068126126,0.586392
1281068186126,0.587419
1281068246126,0.580500
1281068306126,0.582371
1281068366126,0.584529
1281068426126,0.581938
1281068486126,0.587383
1281068546126,0.579816
1281068606126,0.583239
1281068666126,0.578629
1281068726126,0.579730
1281068786126,0.579575
1281068846126,0.579275
1281068906126,0.587117
1281068966126,0.586390
1281069026126,0.584782
1281069086126,0.582540
1281069146126,0.579629
1281069206126,0.583266
1281069266126,0.582650
1281069326126,0.582813
1281069386126,0.580358
1281069446126,0.576785
1281069506126,0.587591
1281069566126,0.583593
1281069626126,0.585140
1281069686126,0.584856
1281069746126,0.581223
1281069806126,0.588777
1281069866126,0.584720
1281069926126,0.585697
1281069986126,0.578359
1281070046126,0.583122
1281070106126,0.578039
1281070166126,0.586159
1281070226126,0.584843
1281070286126,0.584366
1281070346126,0.590550
1281070406126,0.584841
1281070466126,0.586915
1281070526126,0.582342
1281070586126,0.576039
1281070646126,0.581110
1281070706126,0.587226
1281070766126,0.590222
1281070826134,0.577324
1281070886134,0.581979
1281070946134,0.582738
1281071006134,0.582698
1281071066134,0.578655
1281071126134,0.580074
1281071186134,0.584765
1281071246134,0.575492
1281071306134,0.579930
1281071366134,0.582400
1281071426134,0.590033
1281071486134,0.583780
1281071546134,0.583175
1281071606134,0.583699
1281071666134,0.580767
1281071726134,0.584987
1281071786134,0.582463
1281071846134,0.579679
1281071906134,0.584399
1281071966134,0.583905
1281072026134,0.580963
1281072086134,0.581562
1281072146134,0.577615
1281072206134,0.582526
1281072266134,0.581777
1281072326134,0.584632
1281072386134,0.585965
1281072446134,0.580966
1281072506134,0.586381
1281072566134,0.586285
1281072626134,0.579531
1281072686134,0.596106
1281072746134,0.589354
1281072806134,0.578431
1281072866134,0.586283
1281072926134,0.581257
1281072986134,0.577129
1281073046134,0.579534
1281073106134,0.582298
1281073166134,0.582295
1281073226134,0.592431
1281073286134,0.579375
1281073346134,0.583675
1281073406134,0.587951
1281073466134,0.580014
1281073526134,0.580352
1281073586134,0.581600
1281073646134,0.579075
1281073706134,0.580920
1281073766134,0.584933
1281073826134,0.580640
1281073886134,0.583475
1281073946134,0.584347
1281074006134,0.585043
1281074066134,0.580675
1281074126134,0.579250
1281074186134,0.579809
1281074246134,0.582579
1281074306134,0.577939
1281074366134,0.582984
1281074426142,0.578175
1281074486142,0.584863
1281074546142,0.579407
1281074606142,0.584802
1281074666142,0.584157
1281074726142,0.579268
1281074786142,0.582920
1281074846142,0.582475
1281074906142,0.574589
1281074966142,0.583520
1281075026142,0.578221
1281075086142,0.581427
1281075146142,0.577897
1281075206142,0.579547
1281075266142,0.581314
1281075326142,0.577846
1281075386142,0.581342
1281075446142,0.578481
1281075506142,0.581484
1281075566142,0.581422
1281075626142,0.588394
1281075686142,0.579454
1281075746142,0.583722
1281075806142,0.578394
1281075866142,0.589067
1281075926142,0.587808
1281075986142,0.582476
1281076046142,0.582922
1281076106142,0.583723
1281076166142,0.584925
1281076226142,0.579483
1281076286142,0.589624
1281076346142,0.589307
1281076406142,0.590171
1281076466142,0.586201
1281076526142,0.587451
1281076586142,0.589825
1281076646142,0.580326
1281076706142,0.591258
1281076766142,0.583285
1281076826142,0.584912
1281076886142,0.584788
1281076946142,0.586691
1281077006142,0.588832
1281077066142,0.584892
1281077126142,0.593620
1281077186142,0.589384
1281077246142,0.586764
1281077306142,0.587760
1281077366142,0.587142
1281077426142,0.589266
1281077486142,0.590557
1281077546142,0.591072
1281077606142,0.590897
1281077666142,0.587858
1281077726142,0.594917
1281077786142,0.591182
1281077846142,0.586632
1281077906142,0.594083
1281077966142,0.593020
1281078026150,0.592964
1281078086150,0.587431
1281078146150,0.592655
1281078206150,0.586294
1281078266150,0.593189
1281078326150,0.591287
1281078386150,0.599275
1281078446150,0.589380
1281078506150,0.593962
1281078566150,0.590585
1281078626150,0.594690
1281078686150,0.591159
1281078746150,0.595411
1281078806150,0.592952
1281078866150,0.587065
1281078926150,0.586872
1281078986150,0.590761
1281079046150,0.586503
1281079106150,0.592081
1281079166150,0.594417
1281079226150,0.584666
1281079286150,0.594364
1281079346150,0.590675
1281079406150,0.590090
1281079466150,0.590141
1281079526150,0.590008
1281079586150,0.584772
1281079646150,0.588088
1281079706150,0.590571
1281079766150,0.581630
1281079826150,0.595294
1281079886150,0.588191
1281079946150,0.579799
1281080006150,0.595947
1281080066150,0.595291
1281080126150,0.592581
1281080186150,0.592052
1281080246150,0.590135
1281080306150,0.592547
1281080366150,0.585504
1281080426150,0.586740
1281080486150,0.588123
1281080546150,0.588403
1281080606150,0.588631
1281080666150,0.589713
1281080726150,0.592324
1281080786150,0.593221
1281080846150,0.595108
1281080906150,0.589034
1281080966150,0.579210
1281081026150,0.582094
1281081086150,0.587354
1281081146150,0.586646
1281081206150,0.588966
1281081266150,0.588158
1281081326150,0.588535
1281081386150,0.581386
1281081446150,0.590009
1281081506150,0.588803
1281081566150,0.586477
1281081626158,0.581454
1281081686158,0.586018
1281081746158,0.590994
1281081806158,0.587346
1281081866158,0.584032
1281081926158,0.584554
1281081986158,0.585642
1281082046158,0.584199
1281082106158,0.584219
1281082166158,0.582327
1281082226158,0.587542
1281082286158,0.584880
1281082346158,0.587581
1281082406158,0.593451
1281082466158,0.584224
1281082526158,0.585861
1281082586158,0.587048
1281082646158,0.586267
1281082706158,0.587339
1281082766158,0.589581
1281082826158,0.585282
1281082886158,0.588857
1281082946158,0.582980
1281083006158,0.590064
1281083066158,0.585982
1281083126158,0.590275
1281083186158,0.582491
1281083246158,0.591662
1281083306158,0.588011
1281083366158,0.586280
1281083426158,0.585161
1281083486158,0.587646
1281083546158,0.587481
1281083606158,0.583342
1281083666158,0.584737
1281083726158,0.582683
1281083786158,0.581492
1281083846158,0.581758
1281083906158,0.585681
1281083966158,0.592438
1281084026158,0.587323
1281084086158,0.585683
1281084146158,0.584551
1281084206158,0.589085
1281084266158,0.590228
1281084326158,0.586926
1281084386158,0.588520
1281084446158,0.588161
1281084506158,0.591061
1281084566158,0.592917
1281084626158,0.592154
1281084686158,0.587566
1281084746158,0.592268
1281084806158,0.596525
1281084866158,0.601723
1281084926158,0.591237
1281084986158,0.591655
1281085046158,0.587569
1281085106158,0.593470
1281085166158,0.596228
1281085226166,0.587975
1281085286166,0.586221
1281085346166,0.593976
1281085406166,0.596908
1281085466166,0.595349
1281085526166,0.596049
1281085586166,0.594553
1281085646166,0.595456
1281085706166,0.594502
1281085766166,0.594625
1281085826166,0.592559
1281085886166,0.591176
1281085946166,0.594715
1281086006166,0.595840
1281086066166,0.594989
1281086126166,0.592173
1281086186166,0.590039
1281086246166,0.593157
1281086306166,0.599669
1281086366166,0.597061
1281086426166,0.593229
1281086486166,0.598746
1281086546166,0.600817
1281086606166,0.601554
1281086666166,0.593970
1281086726166,0.594177
1281086786166,0.592455
1281086846166,0.597816
1281086906166,0.599612
1281086966166,0.596098
1281087026166,0.594170
1281087086166,0.597000
1281087146166,0.595183
1281087206166,0.597212
1281087266166,0.591539
1281087326166,0.593032
1281087386166,0.592754
1281087446166,0.598960
1281087506166,0.594394
1281087566166,0.604352
1281087626166,0.592047
1281087686166,0.592511
1281087746166,0.599005
1281087806166,0.590262
1281087866166,0.591235
1281087926166,0.595767
1281087986166,0.600467
1281088046166,0.591795
1281088106166,0.594326
1281088166166,0.601665
1281088226166,0.596186
1281088286166,0.590378
1281088346166,0.593765
1281088406166,0.598402
1281088466166,0.594760
1281088526166,0.597185
1281088586166,0.595300
1281088646166,0.601849
1281088706166,0.594263
1281088766166,0.599410
1281088826174,0.600404
1281088886174,0.590410
1281088946174,0.590150
1281089006174,0.589710
1281089066174,0.594493
1281089126174,0.592934
1281089186174,0.599077
1281089246174,0.601114
1281089306174,0.598611
1281089366174,0.603342
1281089426174,0.595600
1281089486174,0.593274
1281089546174,0.589129
1281089606174,0.597326
1281089666174,0.591987
1281089726174,0.596903
1281089786174,0.589735
1281089846174,0.594920
1281089906174,0.592943
1281089966174,0.591128
1281090026174,0.589978
1281090086174,0.597314
1281090146174,0.600484
1281090206174,0.595511
1281090266174,0.594208
1281090326174,0.598743
1281090386174,0.596656
1281090446174,0.594990
1281090506174,0.596643
1281090566174,0.593302
1281090626174,0.595172
1281090686174,0.595260
1281090746174,0.594706
1281090806174,0.590789
1281090866174,0.595412
1281090926174,0.592654
1281090986174,0.588398
1281091046174,0.592889
1281091106174,0.584382
1281091166174,0.592009
1281091226174,0.593287
1281091286174,0.597601
1281091346174,0.588332
1281091406174,0.594375
1281091466174,0.594253
1281091526174,0.600781
1281091586174,0.592422
1281091646174,0.595686
1281091706174,0.594934
1281091766174,0.589707
1281091826174,0.596331
1281091886174,0.592843
1281091946174,0.598279
1281092006174,0.591011
1281092066174,0.593400
1281092126174,0.594250
1281092186174,0.588791
1281092246174,0.593749
1281092306174,0.596277
1281092366174,0.600520
1281092426182,0.595866
1281092486182,0.601535
1281092546182,0.589772
1281092606182,0.594299
1281092666182,0.597586
1281092726182,0.592191
1281092786182,0.596816
1281092846182,0.605288
1281092906182,0.597143
1281092966182,0.588197
1281093026182,0.592667
1281093086182,0.597359
1281093146182,0.595610
1281093206182,0.597272
1281093266182,0.597271
1281093326182,0.603164
1281093386182,0.591838
1281093446182,0.595623
1281093506182,0.600542
1281093566182,0.596444
1281093626182,0.589682
1281093686182,0.593423
1281093746182,0.591748
1281093806182,0.595445
1281093866182,0.585966
1281093926182,0.592426
1281093986182,0.596048
1281094046182,0.586302
1281094106182,0.591245
1281094166182,0.595883
1281094226182,0.588858
1281094286182,0.594749
1281094346182,0.596242
1281094406182,0.599097
1281094466182,0.592680
1281094526182,0.591531
1281094586182,0.598036
1281094646182,0.594730
1281094706182,0.589782
1281094766182,0.594241
1281094826182,0.589235
1281094886182,0.594337
1281094946182,0.595180
1281095006182,0.587480
1281095066182,0.588407
1281095126182,0.593886
1281095186182,0.593566
1281095246182,0.601671
1281095306182,0.593276
1281095366182,0.594972
1281095426182,0.593354
1281095486182,0.600906
1281095546182,0.594665
1281095606182,0.599040
1281095666182,0.600517
1281095726182,0.591716
1281095786182,0.596558
1281095846182,0.602191
1281095906182,0.590692
1281095966182,0.588025
1281096026191,0.599386
1281096086191,0.596593
1281096146191,0.598527
1281096206191,0.597432
1281096266191,0.594293
1281096326191,0.598648
1281096386191,0.597791
1281096446191,0.604592
1281096506191,0.599979
1281096566191,0.596106
1281096626191,0.594854
1281096686191,0.595223
1281096746191,0.594064
1281096806191,0.604905
1281096866191,0.592951
1281096926191,0.596640
1281096986191,0.594510
1281097046191,0.601871
1281097106191,0.601715
1281097166191,0.595147
1281097226191,0.602651
1281097286191,0.598050
1281097346191,0.588509
1281097406191,0.595463
1281097466191,0.591507
1281097526191,0.596240
1281097586191,0.598017
1281097646191,0.602782
1281097706191,0.604377
1281097766191,0.600271
1281097826191,0.604046
1281097886191,0.600343
1281097946191,0.593173
1281098006191,0.595073
1281098066191,0.591458
1281098126191,0.593145
1281098186190,0.597038
1281098246191,0.602718
1281098306191,0.595706
1281098366191,0.597759
1281098426191,0.596467
1281098486191,0.595778
1281098546191,0.594835
1281098606191,0.601150
1281098666191,0.601046
1281098726191,0.595453
1281098786191,0.594467
1281098846191,0.595484
1281098906191,0.598220
1281098966191,0.595675
1281099026191,0.596469
1281099086191,0.595470
1281099146191,0.600241
1281099206191,0.601282
1281099266191,0.602606
1281099326191,0.592879
1281099386191,0.598612
1281099446191,0.594562
1281099506191,0.601208
1281099566191,0.599666
1281099626199,0.596612
1281099686199,0.602104
1281099746199,0.596132
1281099806199,0.596111
1281099866199,0.598605
1281099926199,0.596927
1281099986199,0.596979
1281100046199,0.599492
1281100106199,0.599863
1281100166199,0.605420
1281100226199,0.601283
1281100286199,0.598102
1281100346199,0.601437
1281100406199,0.599650
1281100466199,0.601050
1281100526199,0.604174
1281100586199,0.598251
1281100646199,0.599966
1281100706199,0.601921
1281100766199,0.599258
1281100826199,0.601576
1281100886199,0.601204
1281100946199,0.604294
1281101006199,0.597430
1281101066199,0.604140
1281101126199,0.602724
1281101186199,0.600861
1281101246199,0.600207
1281101306199,0.601419
1281101366199,0.596824
1281101426199,0.599255
1281101486199,0.601828
1281101546199,0.598223
1281101606199,0.600107
1281101666199,0.599113
1281101726199,0.595195
1281101786199,0.597409
1281101846199,0.600469
1281101906199,0.598279
1281101966199,0.600500
1281102026199,0.598058
1281102086199,0.604131
1281102146199,0.595494
1281102206199,0.594854
1281102266199,0.603955
1281102326199,0.595927
1281102386199,0.600702
1281102446199,0.601616
1281102506199,0.598437
1281102566199,0.602585
1281102626199,0.602207
1281102686199,0.597179
1281102746199,0.597903
1281102806199,0.598075
1281102866199,0.602558
1281102926199,0.600970
1281102986199,0.600244
1281103046199,0.594594
1281103106199,0.596871
1281103166199,0.598643
1281103226207,0.607682
1281103286207,0.600484
1281103346207,0.598323
1281103406207,0.596366
1281103466207,0.602266
1281103526207,0.598660
1281103586207,0.603214
1281103646207,0.599733
1281103706207,0.590805
1281103766207,0.598469
1281103826207,0.599114
1281103886207,0.594233
1281103946207,0.599002
1281104006207,0.594819
1281104066207,0.595303
1281104126207,0.597363
1281104186207,0.599654
1281104246207,0.597404
1281104306207,0.600723
1281104366207,0.594768
1281104426207,0.601415
1281104486207,0.597667
1281104546207,0.600048
1281104606207,0.598698
1281104666207,0.597443
1281104726207,0.598468
1281104786207,0.599454
1281104846207,0.600592
1281104906207,0.600375
1281104966207,0.595809
1281105026207,0.604133
1281105086207,0.598363
1281105146207,0.594617
1281105206207,0.605327
1281105266207,0.597966
1281105326207,0.602678
1281105386207,0.602535
1281105446207,0.601246
1281105506207,0.598598
1281105566207,0.600902
1281105626207,0.598124
1281105686207,0.600685
1281105746207,0.597975
1281105806207,0.600284
1281105866207,0.598263
1281105926207,0.600289
1281105986207,0.602438
1281106046207,0.598916
1281106106207,0.598718
1281106166207,0.595439
1281106226207,0.600431
1281106286207,0.593473
1281106346207,0.594169
1281106406207,0.597570
1281106466207,0.598023
1281106526207,0.594980
1281106586207,0.604735
1281106646207,0.602560
1281106706207,0.603381
1281106766207,0.604957
1281106826216,0.599787
1281106886216,0.595588
1281106946216,0.596132
1281107006216,0.601726
1281107066216,0.597598
1281107126216,0.602881
1281107186216,0.598945
1281107246216,0.603127
1281107306216,0.606098
1281107366216,0.600556
1281107426216,0.597247
1281107486216,0.596817
1281107546216,0.598273
1281107606216,0.595870
1281107666216,0.599502
1281107726216,0.604433
1281107786216,0.604115
1281107846216,0.605897
1281107906216,0.604431
1281107966216,0.603745
1281108026216,0.598266
1281108086216,0.602304
1281108146216,0.601479
1281108206216,0.606169
1281108266216,0.609168
1281108326216,0.609700
1281108386216,0.609931
1281108446216,0.618204
1281108506216,0.621920
1281108566216,0.618180
1281108626216,0.618909
1281108686216,0.615826
1281108746216,0.625244
1281108806216,0.621762
1281108866216,0.617688
1281108926216,0.619682
1281108986216,0.622425
1281109046216,0.616494
1281109106216,0.618111
1281109166216,0.615266
1281109226216,0.612478
1281109286216,0.614087
1281109346216,0.616452
1281109406216,0.615318
1281109466216,0.618294
1281109526216,0.619736
1281109586216,0.618574
1281109646216,0.608145
1281109706216,0.609964
1281109766216,0.614145
1281109826216,0.612608
1281109886216,0.612139
1281109946216,0.618403
1281110006216,0.615523
1281110066216,0.619933
1281110126216,0.616498
1281110186216,0.618913
1281110246216,0.612746
1281110306216,0.618567
1281110366216,0.620154
1281110426225,0.624242
1281110486225,0.623645
1281110546225,0.626539
1281110606225,0.621516
1281110666225,0.629846
1281110726225,0.630125
1281110786225,0.629489
1281110846225,0.635072
1281110906225,0.629295
1281110966225,0.642563
1281111026225,0.637644
1281111086225,0.633151
1281111146225,0.634015
1281111206225,0.632904
1281111266225,0.628186
1281111326225,0.631752
1281111386225,0.624349
1281111446225,0.626838
1281111506225,0.627165
1281111566225,0.626466
1281111626225,0.624521
1281111686225,0.623457
1281111746225,0.623367
1281111806225,0.618575
1281111866225,0.621711
1281111926225,0.625207
1281111986225,0.627595
1281112046225,0.623163
1281112106225,0.618812
1281112166225,0.625216
1281112226225,0.617531
1281112286225,0.626081
1281112346225,0.620629
1281112406225,0.621377
1281112466225,0.617182
1281112526225,0.613126
1281112586225,0.621323
1281112646225,0.615845
1281112706225,0.617520
1281112766225,0.614873
1281112826225,0.614343
1281112886225,0.615078
1281112946225,0.613903
1281113006225,0.608609
1281113066225,0.616980
1281113126225,0.614746
1281113186225,0.616847
1281113246225,0.613262
1281113306225,0.615938
1281113366225,0.611170
1281113426225,0.613257
1281113486225,0.608911
1281113546225,0.614145
1281113606225,0.609358
1281113666225,0.613156
1281113726225,0.611972
1281113786225,0.615649
1281113846225,0.608473
1281113906225,0.604351
1281113966225,0.605084
1281114026235,0.611562
1281114086235,0.612810
1281114146235,0.606293
1281114206235,0.609397
1281114266235,0.608789
1281114326235,0.603290
1281114386235,0.607746
1281114446235,0.609598
1281114506235,0.610604
1281114566235,0.612802
1281114626235,0.608857
1281114686235,0.605552
1281114746235,0.611015
1281114806235,0.612567
1281114866235,0.611251
1281114926235,0.611145
1281114986235,0.613849
1281115046235,0.606889
1281115106235,0.612077
1281115166235,0.611682
1281115226235,0.613156
1281115286235,0.603475
1281115346235,0.605617